Wind_Speed
28 29 31 32 34 36 35 33 31 28 30 32 29 29 32 33 31 30 32 32 30 27 22 17 14 11 8 8 9 10 10 12 15 19 22 25 25 21 17 13 10 7 5 5 4 4 4 5 5 5 6 6 6 6 7 7 7 7 8 9 8 7 6 6 6 7 7 5 4 4 4 4 4 5 6 7 7 7 6 6 7 5 4 5 5
26 28 30 32 33 34 33 28 24 26 30 30 27 29 31 30 29 30 30 28 26 21 16 13 11 8 6 7 9 8 9 12 16 20 23 25 25 21 17 13 10 6 5 6 5 5 5 5 5 5 5 4 4 5 5 7 7 7 8 8 9 9 7 5 5 5 6 5 4 3 3 3 2 3 5 6 6 6 6 6 7 4 4 4 4
25 28 30 30 30 31 29 22 22 27 29 28 27 29 29 28 29 29 27 24 20 16 13 10 8 5 5 6 7 7 9 12 16 20 24 25 23 19 16 13 10 7 7 7 7 6 6 5 5 4 4 4 3 4 5 6 7 7 7 8 8 9 8 6 5 5 5 5 5 3 3 4 3 3 4 5 6 6 6 6 6 5 4 4 4
25 27 28 29 28 28 25 21 25 28 27 26 28 28 26 27 28 26 23 19 16 13 10 7 5 3 4 5 5 6 10 14 17 22 25 24 20 17 15 13 11 9 10 10 8 8 7 6 5 5 5 4 4 5 5 6 7 7 6 8 7 7 8 7 6 5 5 5 5 3 2 3 2 3 3 5 6 6 6 6 6 6 6 5 4
26 26 27 28 28 27 23 22 26 26 25 26 27 26 25 26 25 22 18 15 12 10 8 5 3 2 3 3 4 7 12 16 20 25 26 22 19 17 16 15 14 12 12 11 10 10 9 7 8 8 7 8 9 8 6 5 5 6 7 9 7 7 8 8 7 5 5 5 5 3 3 3 2 2 3 4 5 6 7 7 6 7 7 6 5
28 28 28 28 28 26 23 25 26 25 26 26 25 24 24 24 20 16 14 12 10 8 6 3 2 2 3 4 6 9 15 20 24 26 24 22 20 18 18 17 16 14 12 11 10 11 11 11 12 12 11 12 12 10 9 6 5 7 8 8 7 8 9 8 7 5 5 5 3 2 3 3 2 3 3 3 4 6 7 7 7 7 7 6 5
27 29 29 29 28 26 26 27 25 25 26 24 23 23 22 19 15 12 11 9 7 6 4 3 3 3 4 6 9 13 18 23 26 25 23 23 22 20 20 19 17 15 13 12 11 11 12 11 12 11 10 11 8 9 10 8 6 6 6 6 7 8 9 9 7 5 5 3 3 4 2 2 2 3 3 4 5 7 8 7 6 6 7 7 6
27 28 29 29 28 27 29 28 25 25 25 23 22 21 18 14 11 10 8 6 6 5 4 4 4 5 7 9 12 16 20 24 25 23 22 24 24 23 23 23 22 21 19 17 14 12 11 10 9 7 7 8 7 7 8 7 8 8 9 10 9 9 8 7 5 7 7 5 5 5 3 2 2 3 7 7 6 7 6 5 5 5 6 6 6
27 28 28 29 29 29 29 28 26 26 23 20 20 17 13 10 9 7 5 5 5 5 5 5 6 7 9 11 15 18 21 24 24 21 22 25 25 25 26 26 27 27 27 24 21 18 14 12 10 9 8 7 8 7 7 7 10 12 14 15 15 15 12 7 2 6 7 5 4 5 4 4 2 4 9 8 5 5 4 4 5 5 5 6 6
27 27 27 29 29 29 29 28 27 24 20 18 16 13 9 8 6 5 4 4 5 6 6 6 8 9 10 13 16 19 21 23 22 20 21 24 25 26 27 28 29 30 30 29 27 24 20 17 14 13 12 11 10 10 9 11 13 14 16 17 18 18 16 10 2 4 5 6 5 4 4 3 4 5 7 7 4 4 4 4 4 5 5 6 6
27 26 26 28 28 28 28 28 25 21 17 14 12 9 8 6 4 4 5 5 6 6 6 7 9 10 11 14 17 19 21 22 20 18 19 22 24 26 28 29 29 30 29 28 27 26 23 20 17 15 13 12 11 11 12 13 14 16 18 19 18 19 20 14 6 2 4 6 7 5 4 4 5 6 4 5 3 3 4 4 4 4 5 5 6
25 25 25 27 27 27 27 26 21 16 13 11 8 7 5 3 4 5 5 6 6 6 7 8 9 10 12 14 17 19 20 21 19 18 18 20 22 25 27 28 28 28 27 26 25 23 21 18 16 14 13 12 12 12 13 15 17 19 20 19 19 21 22 16 10 4 2 4 7 7 6 6 4 5 3 2 2 4 6 7 6 4 4 5 5
24 24 24 26 25 25 25 22 17 12 10 8 7 5 2 3 4 5 6 6 6 7 8 9 10 11 13 15 17 18 19 20 18 17 17 17 20 22 24 26 26 26 25 24 23 22 20 18 16 15 15 14 15 16 17 19 20 21 21 21 20 22 23 17 12 8 5 2 6 8 9 9 6 2 2 1 1 5 6 8 7 3 3 4 4
23 23 24 24 24 24 22 17 12 9 8 7 5 2 3 4 5 6 7 7 7 8 9 10 11 12 13 15 17 17 18 19 18 18 17 16 17 19 20 22 23 24 24 23 23 22 22 21 19 18 17 18 19 21 22 23 23 23 23 24 23 24 26 21 15 12 8 3 5 7 10 11 9 6 4 3 1 3 2 4 5 2 2 3 3
21 22 23 23 22 22 18 13 9 8 7 5 2 3 4 5 5 7 8 7 8 9 10 11 11 12 13 15 16 16 17 18 18 18 17 16 15 16 17 18 20 22 22 22 23 23 23 22 21 21 20 21 22 23 25 25 26 26 26 26 25 26 28 25 18 12 10 5 5 5 7 10 11 9 6 6 4 3 2 1 3 2 0 2 2
19 21 22 21 20 18 13 9 8 7 5 3 2 4 5 5 7 9 9 8 9 10 10 11 11 12 13 15 15 15 16 17 18 18 18 16 14 14 15 16 17 18 19 21 22 22 22 22 21 21 22 22 23 24 26 27 28 28 28 28 27 26 27 25 18 12 14 11 4 1 3 7 10 11 9 8 6 4 3 3 3 2 1 2 1
18 21 21 20 18 14 10 8 7 6 3 2 4 5 6 7 9 10 10 9 9 10 10 10 11 12 14 14 14 14 15 16 17 18 18 17 14 13 13 14 15 16 17 19 21 22 22 22 21 21 21 22 23 25 26 28 29 29 29 29 28 27 27 24 16 13 18 19 15 9 3 4 5 8 9 10 8 6 6 5 3 2 1 2 2
18 20 20 18 15 10 9 8 7 4 1 4 5 6 7 9 10 11 10 9 9 9 10 10 11 12 13 13 13 13 15 16 17 18 18 17 15 14 13 13 14 15 16 18 20 21 21 21 21 20 20 20 22 23 26 28 29 30 30 30 29 28 26 23 18 16 18 21 19 14 9 8 5 2 5 9 9 6 5 5 4 3 2 1 3
18 19 17 15 11 8 8 7 5 1 4 6 6 7 9 10 10 10 9 8 8 9 10 11 11 12 12 12 12 13 14 15 16 17 18 18 17 16 15 14 14 14 16 18 19 20 20 20 21 21 21 20 20 21 24 26 28 29 29 30 29 28 25 21 19 17 16 18 18 16 15 13 9 5 1 4 7 6 4 4 3 3 3 0 2
17 17 15 12 9 7 8 6 2 3 6 6 7 8 10 10 10 9 8 8 8 9 10 11 11 11 11 12 12 13 13 13 14 16 18 19 19 18 17 15 15 15 16 17 18 18 19 19 20 21 21 20 20 20 21 24 26 27 28 28 28 28 26 20 18 18 15 15 15 16 17 16 15 10 5 2 2 4 4 3 3 3 3 1 0
15 15 13 10 7 6 6 3 2 5 6 7 8 10 10 10 9 7 7 8 9 10 11 11 11 11 11 12 12 13 13 13 14 15 17 18 18 18 17 17 16 16 16 16 17 17 18 19 20 20 19 18 19 19 19 21 24 26 27 27 27 27 25 21 19 19 16 13 12 13 14 16 19 17 12 10 5 1 3 4 3 3 3 2 2
14 13 11 8 6 5 3 1 5 6 6 9 10 10 10 9 7 6 8 9 10 11 10 11 11 12 12 13 13 14 14 13 13 14 15 16 17 17 17 16 17 17 17 16 16 16 17 18 18 18 17 16 16 17 18 20 22 24 25 25 25 26 25 23 23 21 18 14 11 10 11 14 17 18 17 15 11 6 2 1 4 6 5 3 2
12 12 10 7 5 3 0 5 7 7 8 10 11 10 10 8 6 7 9 11 12 11 11 11 12 13 13 14 14 14 16 14 13 13 14 15 16 16 16 16 16 17 17 17 17 17 17 18 17 16 16 15 15 15 17 19 20 22 22 23 24 24 24 24 24 23 21 17 13 10 11 13 14 16 16 15 13 10 8 6 3 5 7 6 4
11 12 9 5 3 1 4 7 8 8 10 11 11 11 9 7 6 8 10 11 12 12 12 12 13 13 14 15 15 15 16 15 14 13 14 16 15 15 16 17 18 18 18 17 18 18 18 17 17 17 16 17 16 15 17 18 19 20 20 21 22 22 23 24 24 24 24 22 17 12 12 13 13 14 13 12 12 10 11 10 7 4 5 6 7
11 12 9 5 2 3 7 9 9 10 12 12 12 11 8 7 8 9 10 11 12 13 13 13 14 15 15 16 16 16 16 15 15 15 16 16 15 16 17 18 20 20 19 18 18 17 18 18 18 19 16 16 18 18 18 18 18 19 18 20 21 21 22 23 24 24 25 24 21 16 14 14 13 13 13 12 12 10 10 11 9 6 4 4 6
12 12 9 4 3 7 10 10 10 13 13 13 12 10 9 8 9 9 10 12 13 13 14 15 15 16 17 17 17 17 16 16 16 16 16 16 16 17 17 18 19 20 19 19 18 17 17 19 19 19 16 17 19 18 18 19 19 20 19 19 20 21 22 23 23 24 25 25 24 21 18 17 15 15 16 15 14 13 11 11 10 9 7 3 3
12 12 9 5 5 10 12 11 12 14 14 13 11 10 10 9 9 10 12 13 14 14 15 15 16 17 18 19 19 20 19 19 18 18 17 17 16 17 18 19 18 19 18 16 17 17 17 19 18 18 19 20 20 18 19 20 21 21 21 21 21 21 22 23 23 23 24 24 24 23 21 20 18 18 17 17 15 13 11 10 10 10 10 7 3
13 12 9 6 8 12 13 12 14 16 14 13 12 11 11 10 10 11 13 14 14 15 16 17 18 19 20 20 22 23 23 23 22 22 20 19 18 19 19 19 18 20 18 14 15 17 17 20 20 21 22 22 21 21 22 23 24 24 24 23 23 23 23 24 24 24 24 24 24 23 22 21 20 19 18 17 16 14 11 10 9 10 12 11 8
14 12 9 7 12 14 14 14 16 16 14 13 12 12 12 11 11 13 14 15 15 16 17 18 19 21 21 22 24 25 25 25 25 25 24 23 22 22 22 20 20 22 20 19 19 19 21 22 24 25 26 26 25 25 26 27 27 27 27 27 26 25 25 25 25 25 25 24 24 23 23 22 21 21 20 20 18 16 13 11 10 8 9 11 11
14 11 9 10 15 16 15 17 18 17 14 13 13 13 13 12 13 14 15 15 16 17 18 19 20 21 22 24 25 26 26 27 27 28 28 28 25 25 26 25 25 25 23 23 23 23 23 24 26 28 29 29 29 29 30 29 30 30 30 30 29 28 28 28 28 27 26 25 25 24 24 23 23 23 23 22 21 18 15 13 12 10 8 8 8
13 11 10 13 17 17 17 18 18 17 15 14 14 14 14 14 15 15 16 16 17 18 19 20 21 22 23 24 26 27 27 28 29 29 29 29 28 28 27 27 27 26 26 26 26 26 27 27 28 30 31 32 32 32 33 32 32 33 33 33 32 32 31 31 31 30 29 28 27 25 24 24 24 25 24 23 23 22 19 17 16 15 12 10 9
13 11 11 15 18 18 19 20 19 17 16 15 15 15 15 16 16 16 16 17 18 19 19 20 21 22 23 25 26 28 28 29 29 30 30 30 30 30 29 29 29 29 29 28 27 28 29 29 30 31 33 34 34 35 35 34 34 34 34 34 34 34 33 33 32 32 31 30 29 27 26 26 25 25 24 24 24 24 23 21 20 19 17 15 14
12 11 13 18 20 19 20 20 19 18 17 17 16 16 16 17 18 18 17 18 19 19 19 20 21 22 23 25 26 28 29 29 30 31 32 31 31 31 31 31 30 31 31 30 30 30 30 30 31 32 34 34 35 35 35 35 34 34 34 34 34 34 34 34 34 33 32 31 30 29 28 27 27 25 24 24 24 24 23 22 21 21 20 19 18
11 11 15 20 20 20 21 20 19 18 18 17 17 17 17 19 19 19 18 18 19 19 19 20 21 22 23 24 26 28 29 29 30 31 32 32 31 31 31 30 29 30 30 29 29 29 29 29 30 31 33 34 35 35 35 35 34 34 34 34 34 34 34 34 35 34 33 32 30 29 28 27 27 26 25 24 23 23 22 22 21 21 20 20 19
11 12 17 21 20 21 21 20 19 18 18 18 18 17 18 19 20 20 19 19 19 19 19 19 20 21 23 24 25 26 28 28 29 30 31 31 30 30 30 30 29 28 29 28 27 28 28 28 28 29 30 32 33 34 34 35 35 35 35 35 34 34 34 34 35 35 35 34 32 30 28 27 26 26 26 25 23 23 22 22 21 20 20 20 19
13 14 20 22 21 22 22 20 20 19 18 18 18 18 18 19 20 20 20 19 19 19 19 19 20 21 22 23 24 25 26 27 27 28 29 29 29 29 28 29 30 29 28 27 26 26 26 26 27 27 28 29 30 31 33 33 34 34 34 34 34 35 35 35 36 36 36 35 34 32 30 28 27 26 25 25 24 24 23 22 21 21 21 20 20
14 17 22 22 22 23 22 21 20 19 19 19 19 18 19 19 20 20 19 19 19 19 19 19 20 21 22 23 23 24 24 25 25 26 27 27 28 28 27 27 28 27 26 26 25 24 25 25 26 26 26 28 29 31 32 33 33 34 34 34 34 35 35 36 37 37 37 37 36 34 32 30 28 27 26 25 24 24 23 23 22 22 22 21 20
16 20 23 23 23 23 22 22 21 19 19 19 19 19 19 19 19 19 19 19 18 18 19 19 20 20 21 22 22 23 23 23 23 23 24 25 25 26 26 25 25 25 24 24 23 23 23 24 24 24 25 27 29 30 31 32 33 34 35 35 35 35 35 35 36 37 37 37 36 35 35 33 31 29 27 26 25 25 24 24 24 24 24 24 23
17 22 24 24 24 24 23 22 21 19 19 19 19 19 19 19 19 19 19 18 18 18 18 19 19 20 20 21 22 22 22 21 20 20 21 21 23 23 24 23 22 23 22 22 21 21 21 22 23 23 24 26 27 29 30 31 33 34 35 36 36 36 35 34 34 36 36 36 36 36 35 34 33 32 30 29 27 27 27 26 26 26 25 25 25
18 22 24 24 24 23 23 23 21 20 20 20 20 19 19 19 19 18 18 18 17 17 17 18 18 19 19 20 21 20 19 18 18 18 18 18 19 20 21 20 19 20 19 19 19 19 20 20 21 22 23 24 25 27 28 30 31 33 35 36 37 37 36 34 32 33 35 35 35 35 35 35 34 34 34 34 32 30 29 29 29 29 28 28 28
19 22 23 23 24 23 23 22 21 20 20 20 20 20 19 19 19 18 17 17 16 16 16 16 17 17 17 18 18 17 16 15 15 15 15 16 16 17 18 17 17 17 16 17 17 17 18 18 19 20 21 22 23 25 27 28 30 32 33 34 36 37 36 35 33 30 31 33 33 33 34 34 34 34 35 36 37 35 34 33 32 32 33 32 33
18 22 23 23 24 23 24 23 21 20 20 20 20 19 19 19 18 17 16 16 15 15 14 15 15 15 15 15 14 12 11 12 12 13 13 14 14 14 15 15 15 15 14 14 15 15 16 16 18 19 20 21 22 24 25 27 29 30 31 33 34 36 36 37 36 32 28 28 30 31 32 33 33 33 35 36 38 39 39 38 36 35 36 35 35
19 22 24 25 25 24 24 23 21 20 19 19 19 18 18 18 17 17 16 15 14 14 13 13 13 13 14 13 12 10 9 10 11 11 12 12 12 12 13 13 14 13 12 12 14 14 14 15 16 18 19 20 21 22 24 26 27 28 29 31 33 34 35 36 37 36 31 25 25 27 28 30 32 32 34 35 37 39 40 40 40 39 38 38 37
20 23 25 26 26 25 25 23 21 19 18 18 18 18 17 17 16 15 15 14 14 13 12 12 11 11 11 11 10 9 9 9 9 10 10 11 11 10 11 12 13 13 11 11 12 13 13 14 15 16 17 19 20 21 23 24 26 27 28 30 31 32 34 35 35 36 36 28 21 22 25 27 30 31 32 34 35 37 39 40 40 40 39 39 39
22 24 25 27 27 26 26 24 22 20 19 18 17 17 16 15 15 14 13 13 12 12 11 10 10 9 9 9 9 8 8 8 8 9 9 9 10 9 10 10 11 11 10 9 10 11 12 13 14 15 16 17 19 20 21 23 24 25 27 28 29 31 32 35 36 35 38 34 22 18 21 23 26 30 31 33 35 36 38 40 40 39 39 39 39
24 24 24 26 27 27 26 24 23 21 19 18 17 16 15 15 14 13 12 11 11 10 10 9 9 8 8 8 8 7 7 7 8 8 8 8 9 9 9 9 9 9 8 8 9 10 11 12 13 14 15 16 18 19 20 21 22 24 25 27 28 29 31 33 35 35 38 39 27 15 16 20 23 27 30 32 35 36 38 41 42 40 39 39 39
24 25 25 27 27 27 26 25 23 21 19 19 17 16 14 14 13 12 11 10 9 9 9 9 8 8 8 7 7 7 7 7 7 7 7 7 8 8 9 9 9 8 8 8 10 11 11 12 13 13 14 15 17 18 19 20 22 23 24 26 27 28 30 31 34 35 37 40 33 18 12 16 19 23 28 31 33 36 38 40 42 43 41 39 39
25 26 27 28 28 28 27 25 23 22 20 19 17 16 14 13 13 12 11 10 9 9 9 9 9 8 8 8 7 7 7 6 6 6 6 6 7 8 8 8 8 8 8 9 9 10 10 11 12 13 14 15 17 18 19 21 22 24 24 25 26 27 29 30 32 35 37 40 39 26 12 10 15 18 23 27 30 33 35 38 40 43 43 40 39
28 28 29 29 29 28 27 26 24 23 21 20 19 17 15 14 13 12 12 11 9 9 8 8 8 8 8 8 8 7 6 5 5 5 5 6 6 7 7 7 8 8 8 9 9 10 10 11 12 14 15 16 17 18 19 21 22 23 24 25 26 27 28 30 31 34 37 40 41 33 17 8 10 14 18 23 28 30 32 34 37 41 44 42 39
30 29 30 30 30 29 29 27 26 25 23 22 21 19 17 15 14 12 11 10 9 9 8 7 7 7 7 7 7 6 5 4 4 4 4 4 5 5 5 5 6 7 8 8 9 10 11 12 13 14 15 16 17 18 19 20 22 22 24 25 26 27 28 30 31 33 36 39 41 38 24 12 11 13 16 20 24 28 31 32 34 38 43 43 40
32 32 32 33 32 31 30 28 27 26 25 24 22 20 18 16 14 13 11 10 9 8 7 6 5 5 5 5 5 5 4 4 3 3 3 2 3 3 3 3 3 4 6 8 9 10 12 13 14 15 16 17 18 19 20 21 21 22 23 24 26 27 28 29 31 33 35 37 41 39 29 21 17 16 18 20 23 27 30 31 31 34 41 44 40
Wind_Direction
302 306 308 310 312 311 311 309 305 298 299 306 304 303 307 309 311 314 315 315 316 319 326 337 350 3 24 49 64 66 57 43 30 18 11 8 8 10 9 10 6 358 20 40 31 49 90 111 108 96 104 106 80 75 69 56 56 49 39 29 23 23 16 11 20 27 27 36 49 49 54 53 35 29 27 17 10 10 10 11 14 3 330 322 314
307 310 311 311 310 309 311 308 301 297 303 307 304 307 311 312 313 315 315 316 320 326 336 347 359 20 47 70 72 63 47 32 19 10 5 2 3 7 10 15 12 14 37 53 56 62 84 107 110 99 107 115 95 93 77 54 54 46 33 19 16 14 3 353 2 9 8 10 21 31 21 12 15 16 11 4 359 0 5 9 21 24 343 331 326
313 314 313 312 311 311 311 305 300 304 306 304 304 311 313 314 315 315 316 320 326 335 344 354 10 41 73 82 71 52 35 22 12 5 0 359 3 9 15 22 24 37 61 73 73 70 81 97 100 93 93 107 106 103 73 53 48 40 26 7 7 11 6 349 338 350 350 345 356 25 15 351 351 0 4 355 349 350 356 5 19 23 359 355 354
319 317 315 314 313 315 312 301 302 307 306 303 308 314 316 316 316 316 320 325 333 342 348 0 24 67 94 86 64 40 22 12 6 1 1 3 10 17 24 35 43 60 79 87 87 79 76 79 88 84 74 66 61 73 54 50 51 39 16 355 354 0 1 351 337 336 333 325 335 358 335 319 322 337 358 348 342 346 347 352 8 17 15 17 14
323 319 318 317 317 317 310 302 306 308 306 308 313 318 319 318 317 320 326 331 339 344 349 7 40 87 93 69 44 25 13 6 4 3 7 14 20 27 39 50 55 68 87 95 98 95 84 73 85 86 78 73 64 59 47 46 38 10 353 345 344 339 339 344 347 341 324 304 313 332 309 304 308 313 327 340 338 340 342 343 354 13 21 25 25
321 319 320 320 319 317 311 309 309 309 311 315 318 321 320 318 320 326 330 335 344 344 349 14 36 55 47 38 25 15 8 6 6 10 18 25 30 38 51 58 58 68 83 93 100 105 102 89 89 92 85 81 70 58 52 48 18 344 334 329 321 312 311 316 325 330 314 296 290 293 307 320 310 292 315 345 330 327 336 338 347 6 20 27 31
316 317 319 319 319 316 315 315 313 313 318 321 322 323 319 320 326 330 332 340 343 341 357 21 23 34 33 24 17 11 8 9 12 19 30 36 41 50 58 61 63 68 76 85 93 105 116 107 97 89 71 66 54 41 42 38 26 358 342 338 323 308 303 304 297 287 281 261 218 235 270 300 298 290 303 332 319 320 331 335 341 0 16 26 33
314 316 318 318 317 316 319 319 317 320 324 324 324 322 320 327 331 331 337 347 344 351 16 23 28 34 26 19 13 10 10 13 17 27 40 44 50 58 63 69 73 75 78 81 86 97 113 113 100 81 57 47 32 27 32 37 47 36 25 20 9 351 334 327 285 250 241 224 212 226 238 251 278 298 299 310 313 311 319 334 340 352 13 26 34
313 316 317 317 317 319 323 321 321 325 326 325 323 321 326 335 332 335 353 354 357 18 27 29 33 30 23 17 10 10 13 15 23 35 46 50 55 61 67 73 75 78 79 81 83 87 93 94 89 78 69 59 51 50 47 42 43 35 27 24 19 10 0 359 293 233 222 216 226 226 241 275 292 294 292 289 298 311 326 358 345 344 12 25 32
313 316 317 316 318 322 325 323 324 327 327 324 322 326 336 336 335 359 13 11 22 31 35 35 33 28 21 15 11 13 15 19 29 41 49 54 58 63 67 70 73 75 77 79 82 84 85 85 84 80 77 70 65 62 51 37 33 29 24 23 19 13 7 9 9 221 210 203 206 207 222 265 296 296 284 262 268 315 338 351 338 340 4 23 26
313 317 316 315 319 323 325 324 325 327 326 323 326 336 339 338 4 32 28 31 38 38 39 36 31 26 18 14 15 17 17 23 34 45 52 56 59 63 66 68 71 72 75 78 80 82 83 84 82 81 77 67 60 54 46 38 33 29 26 24 21 18 14 17 42 155 206 204 185 169 195 216 278 307 290 239 234 299 314 308 320 347 359 19 19
313 316 314 315 320 323 323 323 325 327 325 327 337 340 341 13 50 43 42 44 44 43 41 36 31 23 17 18 20 20 20 27 40 49 53 57 59 63 65 67 69 71 74 77 78 80 81 81 79 77 71 61 53 48 46 42 38 33 31 28 26 25 22 30 52 87 180 212 182 161 170 194 265 309 302 240 214 286 296 284 290 340 357 14 13
312 314 313 315 320 321 320 322 325 327 329 337 341 342 19 67 57 52 54 53 49 48 45 40 31 23 21 24 24 24 24 32 44 50 54 58 58 62 64 65 67 68 70 72 74 73 73 74 74 74 67 61 55 52 51 46 42 38 37 35 33 31 31 42 62 82 108 201 200 187 182 191 228 218 95 46 288 271 279 277 275 311 356 6 2
311 313 313 315 319 319 319 322 327 331 337 340 339 10 84 75 62 65 66 62 56 55 52 44 33 27 27 27 26 26 30 36 45 49 53 59 58 59 61 61 61 62 63 64 63 63 65 66 69 70 66 61 57 54 50 47 43 41 41 39 38 36 39 51 66 81 96 131 190 200 194 200 219 204 157 127 160 226 232 283 276 259 352 6 349
310 310 312 314 318 318 319 326 331 337 340 338 357 88 90 76 74 77 76 73 67 63 58 48 38 33 31 29 27 31 34 39 46 48 50 57 58 57 57 57 57 57 57 57 56 58 60 62 65 65 63 60 56 52 48 46 44 43 43 42 43 42 48 60 70 74 72 96 183 205 202 212 230 237 222 181 173 177 142 292 272 234 21 22 343
308 308 309 313 316 316 320 330 337 340 340 352 87 97 89 88 87 85 84 81 74 67 60 50 41 36 34 32 31 34 37 41 46 47 48 52 56 57 56 55 54 53 53 52 53 55 58 60 63 62 60 58 55 53 49 46 43 43 44 44 47 48 54 63 70 69 50 52 76 39 250 247 246 246 237 214 212 220 220 248 264 240 143 43 350
307 307 309 313 314 315 324 334 339 340 347 83 105 97 96 102 98 92 89 84 75 66 59 50 40 36 35 35 36 39 41 44 47 47 49 50 53 56 55 55 53 52 51 51 51 53 55 57 60 60 58 56 54 52 49 46 42 41 42 43 46 50 58 65 71 72 52 52 63 60 15 318 283 255 236 226 229 235 249 262 270 254 212 46 13
304 305 309 311 311 315 329 335 341 346 74 110 105 101 108 111 104 96 91 84 72 64 56 48 41 37 36 37 39 44 45 47 49 51 53 54 55 57 56 56 54 54 53 50 49 50 53 55 57 57 57 56 53 51 48 45 41 40 40 40 43 48 60 69 68 63 54 55 60 61 54 45 31 317 238 226 229 238 258 265 276 277 255 51 27
300 302 306 307 305 316 330 337 346 35 118 112 109 115 120 116 105 98 92 80 69 61 54 49 44 38 37 39 42 46 49 50 52 55 58 60 60 61 61 59 57 56 54 50 49 50 53 54 53 52 51 51 51 50 45 42 40 38 38 39 41 47 58 65 55 47 48 57 62 61 57 51 42 31 28 216 220 235 263 270 288 294 270 218 35
295 299 302 298 298 317 331 340 0 133 123 116 123 127 126 119 107 99 88 76 67 61 55 53 47 42 42 43 45 47 50 55 59 59 60 62 62 64 65 65 62 58 55 53 52 54 53 50 46 42 40 41 44 46 43 39 38 37 38 39 41 46 54 57 48 43 46 59 65 61 55 49 41 32 39 64 206 228 256 272 299 303 280 274 314
290 296 296 289 295 321 336 344 138 141 126 125 133 132 130 121 109 97 85 75 68 64 60 57 51 50 49 49 50 49 54 63 65 63 61 62 63 64 66 68 68 64 61 59 59 59 52 45 39 34 30 32 37 40 40 37 36 37 37 39 41 43 48 51 47 46 49 58 62 58 55 53 46 39 46 56 55 179 242 254 268 280 289 296 305
286 291 286 280 297 327 341 149 153 143 132 135 137 135 131 120 109 95 84 77 73 70 66 63 61 59 57 56 56 55 63 70 70 67 64 63 62 61 63 66 67 66 63 60 59 56 49 42 36 29 23 26 33 38 39 37 36 37 37 39 41 41 43 43 43 44 45 50 54 53 53 53 46 39 43 51 58 72 80 274 263 262 273 290 318
281 283 273 270 298 326 261 164 157 143 138 140 139 135 130 119 107 92 84 80 78 76 71 70 68 64 63 64 64 63 68 74 74 70 66 62 59 57 57 61 62 62 59 55 50 48 44 38 35 30 25 27 33 39 42 41 39 39 41 41 42 42 42 41 40 40 40 43 47 49 52 51 43 34 33 35 43 60 66 44 344 279 271 273 275
278 275 260 259 291 277 168 165 155 143 142 142 139 134 128 119 105 92 85 82 80 78 76 75 73 71 69 69 70 69 69 72 72 70 67 61 58 58 56 56 56 55 52 48 45 45 43 36 36 36 34 37 42 48 50 45 41 41 44 45 45 44 44 43 40 37 37 40 45 52 55 50 36 27 25 19 19 38 51 38 19 346 296 279 271
275 268 250 244 256 180 166 166 153 142 143 142 139 134 129 120 104 92 86 84 82 80 82 82 80 78 76 72 71 70 70 72 71 71 71 66 63 65 62 57 57 57 50 46 46 44 42 40 44 46 43 48 55 58 55 44 38 42 46 47 47 45 45 45 42 38 37 40 44 48 47 43 33 25 27 24 18 22 29 24 17 13 350 300 276
269 259 240 226 208 173 166 165 150 144 145 143 140 136 130 118 104 94 89 86 84 86 88 88 84 82 79 76 73 72 71 74 76 77 79 76 68 65 65 62 61 62 51 44 46 43 42 45 50 54 52 57 60 56 50 41 38 42 46 47 46 45 45 45 45 40 39 41 43 42 39 35 30 25 24 21 17 13 11 14 15 15 9 354 295
262 248 229 210 188 170 165 163 150 147 147 146 144 137 128 117 106 97 92 89 89 92 93 92 89 85 83 80 78 77 76 78 79 80 84 86 75 66 68 66 64 68 60 47 47 44 42 47 53 57 56 58 59 54 50 45 44 45 45 47 46 45 44 45 46 43 41 42 43 41 39 35 30 27 24 18 13 8 8 15 19 20 20 24 22
251 235 219 198 179 168 163 159 151 149 149 148 144 135 126 118 108 100 95 94 97 98 97 96 92 88 86 85 83 82 82 81 81 80 82 86 80 71 71 68 68 74 72 63 62 57 52 55 58 60 59 60 59 56 54 51 49 49 48 48 46 45 44 44 45 44 42 42 43 42 39 38 34 32 30 26 20 14 15 19 23 28 32 38 41
235 222 211 190 174 165 160 157 152 151 151 150 144 134 127 119 109 102 100 101 104 104 101 97 93 90 88 87 87 85 85 84 83 82 81 84 82 77 77 77 76 78 76 72 71 67 64 63 61 62 62 61 61 59 57 55 52 51 51 49 48 47 45 45 44 44 42 41 41 41 39 37 36 34 31 28 24 20 21 23 24 28 28 34 40
219 211 205 184 172 164 158 157 155 154 154 151 143 133 128 121 112 106 106 108 109 107 103 98 94 92 91 90 89 87 86 86 85 84 83 84 86 84 84 83 80 80 80 76 74 72 69 66 64 63 62 61 61 60 58 57 54 52 52 50 49 48 47 46 45 44 43 41 39 39 38 36 34 33 30 27 23 19 20 23 25 24 16 11 19
206 205 200 179 171 163 158 159 158 156 155 152 143 135 130 122 116 113 114 114 112 108 103 100 97 95 94 92 91 89 88 87 87 86 85 85 85 86 85 83 81 81 81 77 76 74 71 68 66 63 62 61 61 60 59 58 55 54 52 51 49 48 46 46 45 44 43 42 40 38 36 35 34 33 29 26 23 22 21 20 17 14 10 4 2
198 202 195 177 169 163 160 162 161 159 157 153 144 137 133 125 120 119 119 117 114 109 105 103 101 98 97 94 93 91 90 89 88 88 88 87 87 87 86 86 84 83 81 78 76 74 71 69 66 63 62 61 60 59 58 58 56 54 52 51 49 47 45 44 44 43 42 41 40 39 36 35 35 33 31 27 24 24 24 21 16 11 7 5 2
195 202 191 178 169 162 163 164 164 163 159 154 146 141 136 129 126 124 123 120 116 112 109 106 104 101 99 96 94 93 91 91 90 88 88 88 88 87 87 86 83 80 78 76 74 73 70 69 66 64 62 61 60 59 57 56 55 53 51 49 48 46 44 43 42 42 41 40 39 38 36 34 34 33 32 30 27 25 23 22 19 16 12 8 5
193 200 190 179 169 163 165 166 166 166 162 155 149 145 139 133 130 128 126 123 119 116 113 110 107 104 101 98 96 94 92 91 89 88 87 86 86 85 84 84 82 79 77 74 72 71 69 67 65 63 61 60 59 58 57 56 54 52 51 49 47 44 43 41 40 39 38 38 36 35 35 34 34 33 32 31 29 27 24 22 19 17 14 11 8
191 197 188 179 169 165 168 168 168 168 163 157 152 149 143 138 135 132 131 128 124 121 117 114 110 106 102 99 97 95 93 90 89 88 87 85 85 83 81 81 82 79 76 74 71 69 68 65 63 61 59 57 56 56 55 54 52 50 49 47 45 43 41 39 37 36 36 36 34 32 32 31 31 31 31 30 28 27 26 23 21 18 15 12 9
187 190 186 178 168 166 169 170 171 170 165 159 155 153 147 142 139 137 135 132 129 126 121 117 112 109 105 101 98 95 93 91 89 88 88 87 85 84 81 80 80 79 76 74 71 67 65 62 58 56 55 54 53 51 50 49 47 46 44 43 41 39 38 36 34 33 33 34 33 30 28 27 26 27 28 27 25 25 24 22 21 19 17 13 10
186 184 184 178 168 169 170 170 173 172 168 163 159 157 151 147 144 142 140 137 134 130 125 121 116 112 108 104 100 97 94 92 91 89 89 88 87 85 83 80 79 79 77 75 72 68 65 62 58 54 52 51 50 49 47 46 45 43 42 40 38 37 36 35 34 33 32 32 32 31 29 26 24 24 23 23 22 21 19 18 18 17 15 13 11
187 181 182 177 169 171 171 171 174 173 170 166 163 161 156 151 148 147 145 142 139 134 129 125 121 116 111 108 103 100 97 94 92 91 90 90 89 88 86 83 81 80 78 76 73 70 66 64 61 56 52 51 49 48 47 46 45 44 42 41 40 38 36 35 35 35 34 33 32 31 30 29 27 25 23 22 21 21 19 16 14 12 11 9 8
190 181 181 177 171 172 172 172 174 173 171 169 167 165 160 156 153 152 150 146 144 139 134 130 126 121 117 113 108 103 99 96 94 92 92 91 91 91 89 86 84 81 78 76 73 69 66 64 62 58 54 52 50 49 48 47 46 44 43 41 40 38 37 36 37 37 36 35 34 34 33 32 32 32 31 29 27 27 26 23 21 18 12 9 8
192 183 181 177 172 173 172 173 174 173 173 172 172 170 165 161 158 157 155 151 148 143 139 135 131 128 124 120 115 107 101 97 97 95 94 93 92 92 91 89 86 82 78 76 72 68 64 62 60 58 55 52 50 49 47 46 45 43 42 40 38 37 36 35 36 39 39 37 36 37 38 37 38 39 40 40 38 35 32 30 30 29 25 20 16
192 183 182 177 172 173 173 174 174 174 176 176 176 174 170 166 163 162 160 155 153 148 144 140 136 134 131 129 123 114 103 99 100 100 97 94 93 92 90 89 85 79 75 74 71 66 62 59 57 55 53 50 48 46 44 43 42 41 39 38 36 35 34 33 33 35 39 40 40 41 42 43 44 45 47 48 47 46 43 39 37 37 37 33 28
195 185 182 176 172 175 175 174 175 177 179 180 180 178 174 171 168 167 164 159 156 152 148 144 140 138 136 135 131 121 107 100 103 104 100 95 93 92 90 88 83 76 70 69 66 63 59 54 52 50 48 45 44 42 40 40 39 38 36 34 34 32 32 31 30 30 33 38 42 44 46 47 47 49 50 51 51 51 51 50 48 46 45 43 38
195 187 182 176 175 177 176 175 176 178 180 181 182 182 178 174 172 170 167 162 159 156 153 149 144 141 138 136 132 124 111 103 104 104 100 95 91 88 88 87 83 74 64 61 58 55 53 49 46 44 42 40 39 37 35 36 36 34 32 31 30 29 27 26 26 26 27 31 39 43 48 50 50 51 52 52 52 51 50 50 51 51 50 49 46
193 190 185 178 176 178 178 177 176 177 179 181 184 184 181 178 175 173 170 166 163 160 157 153 148 143 138 133 128 122 113 106 103 102 97 92 87 84 82 79 79 75 61 54 53 49 46 44 40 39 37 35 34 33 31 31 31 30 29 27 26 25 23 21 20 21 22 24 33 40 45 51 52 52 52 52 51 50 48 46 45 47 48 47 47
191 193 188 180 177 179 179 178 176 176 178 181 185 186 183 179 176 174 172 168 164 162 158 154 150 143 136 130 124 119 112 106 103 101 95 89 83 80 76 68 68 69 57 47 47 43 40 38 35 33 32 29 27 26 26 26 27 26 25 23 22 21 20 19 18 18 18 19 24 35 40 48 52 52 52 51 50 48 46 43 40 40 42 42 42
190 191 189 182 180 182 182 179 177 177 178 181 185 187 185 180 176 173 172 169 163 158 155 151 147 141 134 127 120 113 107 104 102 99 93 87 79 74 72 65 61 60 50 41 40 35 31 28 26 27 25 22 19 19 18 20 22 20 19 18 18 18 18 19 18 16 16 16 17 23 33 43 51 52 52 50 48 46 43 40 37 34 36 37 37
191 189 188 184 184 186 184 181 179 178 178 182 186 188 187 182 177 172 170 166 160 153 148 144 139 134 129 123 115 107 101 99 96 93 88 81 75 69 67 62 60 55 45 38 35 30 24 18 16 17 16 14 13 13 13 14 15 15 14 15 15 15 15 16 15 14 14 15 15 11 20 37 47 50 49 47 45 41 38 36 33 30 29 31 33
191 188 188 187 188 188 186 184 182 180 181 183 187 189 190 186 181 175 170 166 161 152 146 140 134 128 124 117 111 104 99 96 91 88 80 71 68 66 64 61 57 51 41 35 30 27 21 12 8 9 8 8 8 8 8 10 11 11 11 11 11 11 12 12 12 12 12 14 14 9 5 25 37 41 39 37 36 34 31 30 29 27 24 25 28
190 188 189 189 190 190 190 188 184 183 184 186 189 191 193 192 188 182 176 170 165 158 152 146 138 132 127 121 117 111 105 101 94 90 82 73 66 63 65 63 54 46 36 29 24 19 16 10 6 5 4 3 3 2 3 6 8 8 7 7 8 8 8 8 9 9 10 13 14 12 6 4 15 19 20 20 21 22 24 25 25 24 21 19 22
190 188 190 191 192 193 192 191 189 188 188 189 192 194 195 196 195 192 187 179 174 168 162 157 149 142 136 131 129 125 122 113 102 94 85 75 70 68 68 66 53 41 31 25 19 13 10 6 4 3 1 360 359 359 359 2 4 4 3 4 4 5 4 3 3 4 6 9 12 14 13 0 347 350 357 360 2 8 13 16 18 19 18 16 17
191 189 191 192 193 195 195 194 193 193 194 196 196 197 198 199 201 201 199 194 187 182 177 174 169 163 157 150 145 140 136 132 123 109 96 73 64 59 59 51 34 20 13 9 7 4 3 1 0 359 357 357 356 357 358 359 0 0 1 1 1 1 2 2 0 359 1 5 9 13 14 4 351 342 342 344 347 353 359 4 9 14 14 13 12
Height
11009 11008 11006 11004 11002 10999 10997 10994 10993 10991 10989 10987 10986 10984 10983 10981 10979 10978 10976 10974 10972 10970 10968 10966 10965 10964 10963 10962 10960 10959 10957 10956 10954 10952 10950 10948 10946 10944 10942 10940 10940 10939 10939 10940 10941 10941 10941 10942 10942 10941 10941 10941 10941 10941 10940 10940 10939 10939 10938 10938 10937 10936 10935 10934 10934 10933 10933 10932 10932 10931 10930 10930 10930 10930 10930 10930 10930 10930 10929 10928 10928 10927 10927 10927 10926
11009 11007 11005 11003 11001 10998 10996 10993 10991 10989 10987 10986 10985 10983 10982 10980 10978 10977 10975 10973 10971 10969 10968 10966 10965 10964 10963 10962 10960 10959 10957 10956 10954 10952 10950 10948 10946 10943 10941 10940 10939 10938 10939 10940 10940 10941 10941 10942 10941 10941 10941 10941 10941 10941 10940 10940 10940 10939 10938 10938 10937 10936 10935 10934 10934 10933 10932 10932 10931 10931 10931 10930 10930 10930 10930 10930 10930 10930 10929 10929 10928 10928 10928 10927 10927
11008 11006 11004 11002 11000 10998 10995 10993 10990 10988 10986 10985 10984 10982 10981 10979 10978 10976 10974 10972 10970 10969 10968 10966 10965 10964 10963 10962 10960 10959 10958 10956 10955 10953 10950 10948 10946 10943 10941 10939 10938 10938 10939 10939 10940 10941 10942 10942 10942 10941 10941 10941 10941 10940 10940 10940 10940 10939 10939 10938 10937 10936 10934 10934 10933 10933 10932 10931 10931 10931 10931 10931 10931 10931 10930 10930 10931 10930 10930 10929 10929 10929 10928 10928 10927
11008 11005 11003 11001 10999 10996 10994 10992 10990 10988 10986 10985 10983 10981 10980 10978 10977 10975 10973 10971 10970 10969 10968 10967 10966 10965 10964 10962 10961 10959 10958 10956 10955 10953 10950 10948 10945 10943 10941 10939 10938 10938 10939 10940 10941 10942 10942 10942 10941 10941 10941 10941 10941 10941 10941 10940 10940 10939 10939 10938 10937 10935 10934 10933 10933 10933 10932 10931 10931 10931 10931 10931 10931 10931 10930 10930 10930 10930 10930 10930 10929 10929 10929 10928 10927
11006 11004 11002 11000 10998 10996 10993 10992 10990 10988 10986 10984 10982 10980 10979 10978 10976 10974 10972 10970 10970 10969 10968 10967 10966 10965 10964 10963 10961 10960 10958 10957 10955 10953 10950 10947 10945 10942 10941 10939 10939 10939 10940 10940 10942 10943 10943 10942 10941 10941 10941 10942 10942 10942 10941 10941 10940 10939 10938 10937 10936 10935 10934 10933 10933 10933 10932 10931 10930 10931 10931 10931 10931 10931 10930 10930 10930 10930 10930 10930 10930 10929 10929 10928 10927
11005 11003 11001 10999 10997 10995 10993 10991 10989 10987 10985 10983 10981 10979 10978 10977 10975 10973 10971 10971 10970 10969 10968 10967 10966 10965 10964 10963 10962 10961 10959 10957 10955 10953 10950 10948 10945 10943 10941 10940 10940 10940 10941 10941 10942 10944 10944 10943 10942 10942 10942 10942 10942 10942 10941 10941 10940 10939 10938 10937 10935 10934 10933 10933 10933 10932 10931 10930 10930 10930 10930 10931 10931 10930 10930 10929 10930 10930 10930 10929 10929 10929 10929 10928 10927
11004 11002 11000 10998 10996 10994 10992 10990 10988 10986 10984 10982 10980 10979 10978 10977 10974 10972 10972 10972 10971 10970 10969 10968 10967 10966 10965 10964 10963 10961 10960 10958 10956 10954 10951 10949 10946 10944 10943 10942 10941 10942 10942 10943 10944 10944 10945 10944 10943 10943 10943 10943 10943 10942 10941 10941 10941 10939 10938 10936 10935 10933 10932 10933 10933 10931 10929 10929 10929 10930 10930 10931 10931 10930 10929 10929 10929 10930 10929 10929 10929 10929 10929 10928 10928
11003 11001 10999 10997 10995 10993 10990 10988 10986 10985 10983 10981 10979 10979 10978 10976 10974 10973 10973 10972 10971 10970 10969 10968 10968 10967 10966 10965 10964 10962 10961 10959 10957 10955 10953 10951 10948 10946 10945 10944 10943 10943 10943 10944 10944 10945 10945 10944 10944 10944 10943 10943 10943 10942 10941 10941 10940 10939 10938 10936 10934 10932 10931 10932 10931 10929 10928 10928 10929 10929 10929 10930 10931 10930 10929 10929 10929 10929 10929 10929 10929 10929 10929 10928 10928
11001 10999 10997 10995 10993 10991 10988 10986 10985 10983 10981 10980 10979 10978 10977 10975 10974 10974 10974 10973 10972 10971 10970 10969 10968 10967 10967 10966 10965 10963 10962 10961 10959 10957 10955 10953 10952 10950 10948 10947 10946 10946 10945 10945 10945 10945 10945 10945 10945 10945 10944 10944 10943 10943 10942 10941 10940 10939 10938 10936 10934 10931 10930 10930 10930 10927 10928 10929 10929 10929 10928 10928 10929 10929 10928 10928 10928 10929 10929 10929 10929 10928 10928 10928 10928
11000 10998 10995 10993 10991 10989 10987 10984 10983 10981 10980 10979 10979 10978 10977 10975 10974 10974 10974 10974 10973 10972 10971 10970 10969 10968 10968 10967 10966 10965 10963 10962 10960 10959 10957 10956 10955 10953 10951 10950 10949 10948 10948 10947 10947 10947 10947 10947 10946 10946 10946 10945 10945 10944 10943 10942 10940 10939 10938 10936 10934 10931 10929 10928 10928 10927 10928 10930 10931 10931 10929 10928 10928 10928 10928 10928 10928 10929 10929 10929 10929 10929 10928 10928 10928
10999 10997 10994 10991 10989 10986 10985 10983 10981 10980 10980 10979 10978 10978 10977 10976 10975 10975 10975 10975 10974 10973 10972 10971 10970 10970 10969 10968 10967 10966 10964 10963 10962 10960 10959 10958 10957 10955 10954 10953 10952 10951 10951 10951 10950 10950 10950 10949 10949 10948 10947 10947 10946 10945 10944 10942 10941 10940 10938 10936 10934 10931 10928 10927 10927 10927 10928 10929 10931 10931 10931 10930 10929 10928 10927 10927 10928 10929 10929 10929 10929 10929 10928 10928 10928
10998 10996 10994 10991 10988 10985 10983 10982 10981 10980 10979 10979 10978 10978 10977 10976 10976 10976 10976 10975 10974 10973 10973 10972 10971 10971 10970 10970 10968 10967 10965 10964 10963 10962 10961 10960 10959 10958 10957 10956 10955 10954 10954 10954 10953 10953 10952 10952 10951 10950 10949 10948 10947 10945 10944 10943 10942 10940 10939 10937 10934 10931 10928 10926 10926 10926 10927 10928 10930 10931 10931 10932 10930 10928 10927 10927 10928 10929 10929 10929 10929 10928 10928 10928 10928
10998 10996 10993 10991 10988 10985 10984 10983 10982 10980 10979 10979 10979 10978 10977 10977 10977 10977 10977 10976 10975 10975 10974 10973 10973 10972 10971 10970 10969 10968 10966 10965 10964 10963 10962 10962 10961 10960 10959 10958 10958 10957 10956 10956 10956 10955 10954 10953 10952 10951 10951 10949 10948 10947 10945 10944 10942 10941 10939 10937 10935 10932 10928 10926 10926 10927 10928 10929 10930 10931 10931 10932 10930 10927 10927 10927 10928 10929 10929 10928 10928 10928 10929 10929 10928
10997 10995 10993 10990 10988 10986 10984 10983 10982 10980 10980 10979 10979 10978 10978 10978 10978 10978 10978 10977 10976 10976 10975 10975 10974 10973 10972 10971 10970 10969 10967 10966 10966 10965 10964 10963 10962 10962 10961 10960 10960 10959 10958 10958 10957 10957 10956 10955 10954 10953 10952 10951 10950 10948 10947 10945 10943 10941 10939 10938 10935 10933 10929 10925 10926 10929 10929 10929 10929 10930 10931 10930 10929 10927 10927 10928 10928 10928 10928 10928 10928 10928 10929 10929 10928
10996 10994 10992 10990 10988 10986 10985 10983 10982 10981 10980 10980 10979 10979 10979 10979 10979 10979 10979 10978 10978 10977 10976 10975 10975 10974 10973 10972 10971 10970 10969 10968 10967 10966 10965 10964 10963 10963 10962 10962 10961 10961 10960 10959 10959 10958 10957 10956 10955 10954 10953 10952 10951 10949 10948 10946 10944 10942 10940 10939 10936 10934 10930 10928 10929 10931 10931 10931 10930 10931 10931 10930 10929 10929 10929 10929 10928 10928 10928 10928 10928 10929 10929 10929 10928
10995 10993 10991 10990 10988 10986 10985 10983 10982 10981 10981 10981 10980 10980 10980 10980 10980 10980 10979 10979 10979 10978 10977 10976 10975 10975 10974 10973 10972 10971 10970 10969 10968 10967 10966 10965 10964 10964 10964 10963 10963 10962 10961 10961 10960 10959 10958 10957 10956 10955 10955 10953 10952 10950 10948 10947 10945 10943 10942 10940 10938 10936 10933 10931 10933 10933 10933 10932 10931 10932 10932 10930 10930 10929 10930 10929 10929 10929 10929 10928 10928 10929 10929 10929 10928
10993 10992 10990 10988 10987 10986 10984 10983 10982 10982 10981 10981 10980 10980 10981 10981 10981 10981 10980 10980 10979 10978 10977 10977 10976 10975 10974 10974 10973 10972 10971 10970 10969 10968 10967 10966 10966 10965 10965 10965 10964 10964 10963 10962 10961 10960 10960 10959 10958 10957 10956 10955 10953 10951 10949 10948 10946 10944 10943 10941 10940 10938 10936 10934 10936 10935 10935 10933 10933 10934 10933 10931 10930 10929 10929 10929 10929 10930 10930 10929 10929 10929 10929 10929 10929
10992 10990 10989 10987 10986 10985 10984 10983 10983 10982 10982 10981 10981 10981 10982 10982 10982 10982 10981 10981 10980 10979 10978 10977 10977 10976 10975 10974 10974 10973 10972 10971 10970 10969 10968 10967 10967 10967 10966 10966 10966 10965 10964 10963 10962 10962 10961 10960 10959 10959 10958 10957 10955 10953 10951 10949 10948 10946 10944 10943 10941 10939 10938 10938 10939 10937 10936 10934 10934 10934 10933 10931 10930 10929 10929 10929 10929 10930 10930 10930 10929 10929 10929 10929 10929
10991 10990 10989 10987 10986 10985 10984 10983 10983 10982 10982 10982 10982 10982 10983 10983 10983 10982 10982 10981 10980 10979 10979 10978 10977 10977 10976 10975 10974 10973 10973 10972 10971 10970 10970 10969 10968 10968 10968 10967 10967 10966 10966 10965 10964 10963 10962 10961 10961 10960 10959 10958 10956 10955 10953 10951 10949 10947 10945 10944 10942 10941 10939 10940 10940 10939 10937 10936 10935 10934 10933 10932 10931 10929 10928 10928 10929 10930 10930 10930 10930 10929 10929 10929 10929
10991 10989 10988 10987 10986 10985 10984 10983 10983 10983 10982 10983 10983 10983 10984 10984 10983 10983 10982 10981 10980 10980 10979 10979 10978 10977 10976 10976 10975 10974 10973 10973 10972 10972 10971 10970 10970 10969 10969 10968 10968 10967 10967 10966 10965 10964 10963 10963 10962 10961 10960 10959 10958 10956 10955 10953 10951 10948 10946 10945 10944 10942 10941 10941 10941 10940 10938 10937 10937 10935 10934 10933 10932 10930 10929 10929 10929 10929 10930 10930 10930 10930 10930 10929 10929
10989 10988 10988 10987 10986 10985 10984 10984 10983 10983 10983 10984 10984 10984 10985 10984 10984 10983 10983 10982 10981 10980 10980 10979 10979 10978 10977 10976 10976 10975 10974 10973 10973 10973 10972 10972 10971 10971 10970 10969 10969 10968 10967 10967 10966 10965 10965 10964 10963 10962 10961 10960 10959 10957 10956 10954 10952 10950 10948 10946 10946 10944 10943 10943 10942 10941 10939 10938 10938 10937 10935 10934 10933 10932 10930 10929 10929 10929 10930 10930 10930 10930 10930 10929 10929
10989 10988 10987 10986 10985 10985 10984 10984 10984 10984 10984 10985 10985 10985 10985 10985 10985 10984 10983 10982 10981 10981 10980 10980 10980 10979 10978 10977 10976 10976 10975 10974 10974 10973 10973 10973 10972 10972 10971 10970 10970 10969 10969 10968 10967 10967 10966 10965 10965 10964 10962 10961 10960 10959 10957 10956 10954 10952 10950 10948 10947 10945 10944 10944 10942 10941 10940 10939 10938 10937 10936 10935 10934 10933 10932 10931 10930 10930 10930 10930 10930 10930 10930 10930 10929
10988 10987 10986 10986 10985 10985 10985 10985 10985 10985 10985 10985 10986 10986 10986 10985 10985 10984 10984 10983 10982 10982 10981 10981 10981 10980 10979 10978 10978 10977 10976 10975 10975 10974 10974 10974 10973 10973 10972 10971 10971 10971 10970 10969 10969 10968 10968 10967 10966 10965 10964 10963 10962 10961 10959 10958 10956 10954 10952 10950 10948 10948 10946 10944 10943 10941 10940 10939 10938 10938 10937 10935 10934 10934 10933 10932 10932 10931 10931 10931 10930 10930 10930 10930 10929
10987 10986 10986 10986 10985 10985 10985 10985 10986 10986 10986 10986 10986 10986 10986 10986 10986 10985 10984 10984 10983 10982 10982 10982 10982 10981 10981 10979 10979 10978 10977 10976 10976 10975 10975 10975 10974 10973 10972 10972 10972 10972 10971 10971 10971 10970 10969 10969 10968 10967 10966 10965 10964 10963 10961 10960 10958 10956 10954 10952 10950 10949 10948 10946 10944 10943 10941 10940 10939 10938 10937 10936 10935 10935 10934 10933 10932 10932 10931 10931 10931 10930 10930 10929 10929
10986 10986 10985 10985 10985 10985 10985 10986 10986 10986 10986 10987 10987 10987 10986 10986 10986 10986 10985 10984 10984 10983 10983 10983 10983 10982 10982 10981 10980 10979 10978 10978 10977 10977 10976 10976 10975 10974 10973 10973 10973 10973 10973 10973 10973 10972 10971 10971 10969 10968 10967 10967 10966 10965 10963 10962 10960 10958 10956 10954 10952 10951 10949 10948 10946 10944 10943 10942 10940 10939 10938 10937 10936 10935 10934 10933 10932 10932 10931 10930 10930 10930 10929 10929 10929
10985 10985 10985 10985 10985 10985 10985 10986 10986 10987 10987 10987 10987 10987 10987 10987 10986 10986 10986 10985 10985 10985 10984 10984 10984 10984 10983 10983 10982 10981 10980 10979 10979 10978 10977 10977 10977 10976 10975 10975 10975 10973 10973 10974 10975 10975 10974 10973 10971 10970 10970 10969 10968 10966 10964 10963 10961 10959 10957 10955 10954 10952 10951 10949 10948 10946 10945 10943 10942 10941 10939 10938 10937 10936 10934 10933 10932 10931 10930 10930 10929 10929 10928 10928 10928
10984 10985 10985 10985 10985 10985 10986 10986 10987 10987 10987 10988 10987 10987 10987 10987 10987 10986 10986 10986 10986 10986 10986 10986 10986 10985 10985 10985 10984 10983 10982 10981 10980 10979 10978 10978 10978 10978 10978 10977 10976 10974 10974 10976 10977 10977 10976 10974 10973 10972 10972 10970 10969 10968 10966 10964 10963 10960 10959 10957 10956 10954 10952 10951 10950 10948 10947 10946 10944 10942 10941 10939 10938 10936 10935 10934 10932 10931 10930 10929 10929 10929 10928 10927 10927
10983 10984 10984 10984 10984 10985 10985 10986 10987 10987 10988 10988 10988 10988 10988 10987 10987 10987 10987 10987 10987 10987 10987 10987 10987 10987 10987 10986 10985 10984 10983 10983 10982 10980 10980 10979 10979 10979 10979 10979 10979 10978 10978 10979 10978 10979 10978 10976 10975 10974 10973 10972 10971 10969 10967 10966 10964 10962 10961 10959 10957 10956 10954 10953 10951 10950 10949 10948 10946 10944 10942 10941 10939 10938 10936 10935 10933 10932 10930 10930 10929 10929 10928 10927 10927
10982 10983 10983 10983 10984 10984 10985 10986 10987 10988 10988 10988 10988 10988 10988 10988 10988 10988 10988 10988 10988 10988 10988 10988 10988 10988 10988 10987 10986 10986 10985 10985 10984 10983 10981 10981 10981 10981 10981 10983 10983 10982 10982 10982 10981 10982 10980 10979 10978 10976 10975 10974 10972 10971 10969 10967 10966 10964 10962 10961 10959 10958 10956 10955 10953 10952 10951 10950 10948 10946 10944 10942 10941 10939 10938 10936 10934 10933 10931 10930 10930 10929 10929 10928 10927
10980 10982 10982 10983 10983 10984 10985 10986 10987 10988 10988 10989 10989 10989 10989 10989 10989 10989 10989 10989 10990 10990 10990 10990 10990 10990 10989 10989 10988 10987 10987 10987 10986 10985 10984 10983 10984 10984 10984 10985 10985 10985 10985 10985 10984 10984 10983 10982 10981 10979 10977 10976 10974 10973 10971 10969 10968 10966 10964 10963 10961 10959 10958 10956 10955 10954 10952 10951 10949 10947 10945 10944 10942 10940 10939 10937 10935 10934 10932 10931 10930 10929 10929 10929 10928
10979 10981 10982 10982 10983 10983 10984 10986 10987 10988 10988 10989 10989 10989 10989 10989 10990 10990 10990 10991 10991 10991 10991 10991 10991 10991 10991 10990 10989 10989 10989 10988 10988 10987 10986 10986 10986 10986 10986 10986 10987 10988 10987 10986 10986 10986 10985 10984 10983 10981 10980 10979 10977 10975 10973 10971 10970 10968 10966 10965 10963 10961 10959 10958 10957 10955 10954 10952 10950 10949 10947 10945 10943 10942 10940 10938 10936 10935 10934 10933 10931 10930 10930 10929 10928
10979 10980 10981 10982 10982 10983 10984 10986 10987 10988 10988 10989 10990 10990 10990 10990 10990 10991 10991 10992 10992 10992 10992 10992 10992 10992 10992 10991 10991 10990 10990 10990 10990 10989 10989 10988 10988 10988 10988 10989 10989 10990 10989 10989 10989 10988 10987 10986 10985 10984 10982 10981 10979 10977 10975 10974 10973 10970 10968 10967 10965 10963 10961 10959 10958 10956 10955 10954 10952 10950 10948 10946 10945 10943 10942 10940 10938 10936 10935 10934 10932 10931 10930 10929 10928
10978 10980 10981 10981 10982 10983 10984 10986 10987 10988 10988 10989 10990 10990 10990 10991 10991 10992 10992 10993 10993 10993 10993 10993 10993 10993 10993 10993 10992 10992 10992 10992 10992 10991 10991 10991 10991 10990 10990 10991 10991 10991 10991 10991 10990 10989 10989 10988 10987 10986 10984 10983 10981 10979 10977 10975 10974 10972 10970 10968 10966 10965 10963 10961 10959 10958 10956 10955 10953 10952 10950 10947 10946 10945 10943 10941 10939 10938 10936 10935 10933 10932 10931 10930 10929
10978 10980 10981 10981 10982 10983 10984 10986 10987 10988 10989 10990 10990 10990 10991 10991 10992 10992 10993 10993 10994 10994 10994 10994 10994 10994 10994 10994 10994 10994 10993 10993 10993 10993 10993 10992 10992 10992 10992 10992 10992 10992 10992 10992 10992 10991 10990 10990 10988 10987 10986 10984 10982 10980 10979 10977 10975 10974 10972 10970 10968 10966 10964 10962 10960 10959 10957 10956 10954 10953 10951 10949 10948 10947 10944 10942 10940 10939 10938 10936 10934 10933 10931 10930 10929
10977 10979 10980 10981 10982 10983 10985 10986 10988 10989 10989 10990 10990 10991 10992 10992 10992 10993 10993 10994 10994 10995 10995 10995 10995 10995 10995 10995 10995 10995 10994 10994 10994 10994 10994 10994 10994 10994 10994 10994 10993 10993 10992 10993 10994 10993 10992 10991 10990 10988 10987 10985 10983 10982 10980 10979 10977 10975 10974 10972 10970 10968 10966 10964 10962 10960 10959 10957 10955 10953 10952 10950 10949 10948 10945 10943 10941 10940 10939 10937 10936 10934 10933 10931 10930
10976 10978 10980 10981 10982 10983 10985 10987 10988 10989 10990 10991 10991 10992 10992 10993 10993 10993 10994 10995 10995 10996 10996 10996 10996 10996 10996 10996 10996 10995 10995 10995 10995 10995 10995 10995 10995 10995 10995 10995 10995 10995 10994 10995 10995 10995 10994 10992 10991 10990 10988 10986 10985 10983 10982 10980 10979 10977 10975 10974 10972 10970 10968 10966 10964 10962 10960 10958 10956 10954 10952 10950 10949 10948 10946 10944 10942 10941 10939 10938 10937 10935 10933 10932 10931
10976 10978 10980 10981 10982 10983 10985 10987 10988 10990 10991 10991 10992 10992 10993 10994 10994 10994 10994 10995 10996 10996 10997 10997 10997 10997 10996 10996 10996 10996 10996 10996 10996 10997 10997 10997 10997 10996 10996 10996 10997 10997 10997 10997 10997 10997 10995 10994 10992 10991 10990 10988 10986 10984 10983 10982 10980 10979 10977 10975 10973 10972 10970 10968 10966 10964 10962 10960 10958 10956 10954 10952 10950 10948 10947 10945 10943 10942 10940 10939 10937 10935 10934 10932 10931
10976 10977 10979 10981 10982 10983 10985 10987 10989 10990 10991 10992 10992 10993 10994 10994 10995 10995 10995 10996 10996 10997 10997 10998 10998 10998 10997 10997 10997 10997 10997 10997 10997 10998 10998 10998 10998 10998 10998 10998 10999 10999 10999 10999 10999 10998 10997 10995 10994 10993 10991 10989 10988 10986 10985 10984 10982 10981 10979 10977 10975 10973 10972 10970 10968 10967 10964 10963 10961 10959 10956 10954 10952 10950 10948 10946 10944 10943 10941 10939 10937 10936 10934 10933 10931
10976 10977 10979 10980 10982 10983 10985 10987 10989 10991 10992 10993 10993 10994 10994 10995 10995 10995 10996 10996 10997 10997 10998 10998 10998 10998 10998 10998 10998 10998 10998 10998 10999 10999 10999 10999 10999 10999 10999 11000 11001 11000 11001 11001 11000 11000 10998 10997 10996 10994 10993 10991 10990 10989 10987 10986 10984 10982 10980 10978 10976 10975 10974 10972 10971 10969 10967 10965 10963 10961 10959 10956 10954 10952 10950 10948 10946 10944 10942 10940 10938 10937 10935 10933 10932
10976 10977 10979 10980 10982 10984 10986 10987 10989 10991 10992 10993 10994 10994 10995 10996 10996 10996 10997 10997 10998 10998 10999 10999 10999 10999 10999 10999 10999 10999 10999 11000 11000 11000 11000 11000 11000 11000 11000 11001 11001 11001 11002 11002 11001 11001 10999 10998 10997 10995 10994 10993 10992 10991 10989 10988 10986 10984 10982 10980 10979 10977 10976 10974 10973 10971 10969 10967 10965 10963 10961 10959 10956 10954 10952 10950 10948 10946 10943 10941 10939 10938 10936 10935 10933
10977 10978 10979 10981 10982 10984 10986 10988 10990 10991 10992 10993 10994 10994 10995 10996 10997 10997 10997 10998 10998 10999 10999 11000 11000 11000 11000 11000 11000 11000 11001 11001 11001 11001 11001 11001 11001 11001 11001 11002 11002 11002 11002 11002 11002 11001 11000 10999 10998 10996 10995 10994 10993 10992 10991 10989 10987 10985 10984 10982 10981 10979 10978 10976 10974 10973 10971 10969 10967 10965 10964 10961 10959 10957 10955 10953 10950 10948 10946 10943 10941 10939 10938 10937 10935
10977 10978 10980 10981 10983 10984 10986 10988 10990 10991 10993 10993 10994 10995 10996 10997 10997 10998 10998 10999 10999 11000 11000 11001 11001 11001 11001 11001 11001 11001 11002 11002 11002 11002 11002 11002 11002 11002 11002 11003 11002 11002 11002 11003 11003 11002 11001 11001 10999 10997 10996 10996 10994 10993 10992 10990 10988 10986 10985 10984 10982 10981 10980 10978 10976 10974 10973 10971 10969 10967 10966 10964 10962 10959 10957 10955 10953 10951 10949 10947 10945 10943 10941 10939 10937
10977 10978 10980 10981 10982 10984 10986 10988 10990 10991 10993 10994 10995 10996 10997 10997 10998 10999 10999 10999 11000 11000 11001 11001 11001 11002 11002 11002 11002 11002 11003 11003 11003 11003 11003 11003 11003 11003 11003 11003 11003 11003 11003 11004 11004 11003 11002 11001 11000 10998 10997 10996 10995 10994 10992 10990 10989 10987 10986 10985 10984 10982 10981 10979 10977 10976 10974 10972 10971 10969 10967 10965 10964 10961 10959 10957 10955 10953 10952 10950 10949 10947 10944 10942 10940
10977 10978 10979 10980 10982 10984 10986 10988 10989 10991 10993 10994 10995 10996 10997 10998 10999 10999 11000 11000 11001 11001 11001 11002 11002 11002 11003 11003 11003 11003 11003 11004 11004 11004 11004 11004 11004 11005 11004 11004 11003 11003 11004 11005 11005 11005 11003 11002 11001 11000 10998 10997 10996 10995 10993 10991 10990 10988 10987 10986 10984 10983 10982 10980 10978 10977 10975 10973 10972 10970 10968 10967 10965 10963 10961 10959 10957 10955 10953 10952 10950 10948 10946 10944 10942
10976 10978 10979 10980 10982 10984 10985 10987 10989 10991 10992 10994 10995 10996 10997 10998 10999 11000 11000 11001 11001 11002 11002 11002 11003 11003 11003 11003 11003 11004 11004 11005 11005 11005 11005 11005 11005 11006 11005 11005 11004 11004 11006 11007 11006 11006 11005 11003 11002 11001 11000 10999 10997 10996 10995 10993 10991 10990 10988 10987 10986 10984 10983 10981 10979 10977 10975 10974 10972 10971 10969 10968 10966 10963 10961 10959 10958 10956 10954 10952 10951 10949 10946 10944 10942
10975 10977 10979 10981 10982 10984 10985 10987 10988 10990 10992 10993 10995 10996 10997 10999 11000 11000 11001 11002 11002 11003 11003 11003 11003 11004 11004 11004 11004 11004 11005 11005 11005 11006 11006 11006 11006 11006 11006 11006 11006 11006 11008 11008 11007 11006 11005 11004 11004 11002 11001 11000 10999 10997 10996 10994 10993 10991 10990 10988 10987 10985 10984 10982 10980 10978 10976 10974 10972 10971 10969 10968 10966 10964 10962 10960 10958 10957 10955 10953 10952 10950 10948 10945 10942
10974 10977 10979 10980 10982 10983 10985 10987 10988 10990 10991 10993 10994 10996 10997 10999 11000 11001 11002 11002 11003 11003 11004 11004 11004 11004 11004 11005 11005 11005 11005 11006 11006 11006 11007 11007 11007 11007 11007 11007 11007 11008 11008 11008 11007 11006 11005 11005 11004 11003 11002 11001 11000 10998 10997 10995 10993 10992 10990 10989 10987 10986 10984 10983 10981 10979 10977 10974 10972 10970 10969 10968 10967 10965 10963 10961 10958 10957 10955 10953 10952 10950 10949 10946 10943
10974 10975 10977 10979 10981 10983 10985 10986 10988 10990 10991 10993 10994 10996 10997 10998 10999 11000 11001 11002 11003 11003 11004 11004 11005 11005 11005 11005 11005 11005 11006 11006 11006 11007 11007 11007 11007 11007 11007 11007 11007 11008 11008 11007 11007 11006 11005 11005 11004 11003 11002 11001 11000 10998 10997 10995 10994 10992 10991 10989 10988 10986 10985 10983 10982 10980 10977 10975 10972 10970 10969 10968 10967 10965 10963 10961 10959 10957 10955 10953 10951 10950 10949 10946 10944
10972 10974 10976 10978 10980 10983 10984 10986 10987 10989 10990 10992 10993 10995 10996 10997 10998 11000 11001 11002 11002 11003 11004 11004 11005 11005 11005 11005 11005 11006 11006 11006 11006 11007 11007 11007 11007 11007 11007 11007 11007 11007 11007 11007 11006 11005 11005 11005 11004 11003 11002 11001 11000 10999 10997 10995 10994 10992 10991 10989 10988 10986 10985 10983 10982 10980 10977 10975 10972 10969 10968 10967 10966 10965 10963 10961 10959 10957 10955 10953 10951 10949 10948 10946 10943
10970 10972 10975 10977 10979 10981 10983 10985 10987 10988 10989 10991 10992 10994 10995 10996 10998 10999 11000 11001 11002 11003 11004 11004 11005 11005 11005 11006 11006 11006 11006 11006 11006 11006 11006 11007 11007 11007 11007 11007 11007 11007 11006 11006 11005 11005 11004 11004 11003 11003 11002 11001 11000 10999 10997 10996 10994 10993 10991 10989 10988 10986 10985 10983 10981 10979 10977 10975 10972 10969 10968 10967 10966 10964 10963 10961 10959 10957 10955 10953 10951 10949 10947 10945 10942
10968 10970 10973 10975 10977 10980 10982 10984 10986 10987 10988 10990 10991 10993 10994 10996 10997 10998 10999 11000 11001 11002 11003 11004 11004 11005 11005 11006 11006 11006 11006 11006 11006 11006 11006 11006 11006 11006 11006 11006 11006 11006 11006 11005 11005 11004 11004 11003 11003 11002 11002 11001 11000 10999 10997 10996 10994 10993 10991 10990 10988 10987 10985 10983 10981 10979 10977 10974 10972 10970 10968 10966 10965 10964 10962 10961 10959 10957 10955 10953 10951 10949 10946 10944 10942